This is the latest recevied weather packets stored in our database for station/object HS6PNA-2. If no packets are shown the sender has not sent any weather packets the latest 10 day(s).
| Time | Temp. | Humidity | Pressure | Rain* | Wind** | Luminosity | Snow |
|---|---|---|---|---|---|---|---|
| 1777897731 | 31.11° C | 34% | 1003 hPa | - | - | 0 W/m² | - |
| 1777896806 | 31.11° C | 27% | 1002 hPa | - | - | 0 W/m² | - |
| 1777895882 | 31.11° C | 28% | 1002 hPa | - | - | 0 W/m² | - |
| 1777894957 | 31.11° C | 28% | 1002 hPa | - | - | 0 W/m² | - |
| 1777894033 | 31.11° C | 28% | 1002 hPa | - | - | 0 W/m² | - |
| 1777893108 | 31.67° C | 28% | 1002 hPa | - | - | 0 W/m² | - |
| 1777892184 | 31.11° C | 29% | 1002 hPa | - | - | 0 W/m² | - |
| 1777891259 | 31.67° C | 29% | 1002 hPa | - | - | 0 W/m² | - |
| 1777890335 | 31.67° C | 30% | 1002 hPa | - | - | 0 W/m² | - |
| 1777889411 | 31.11° C | 30% | 1001 hPa | - | - | 0 W/m² | - |
| 1777888486 | 31.67° C | 28% | 1001 hPa | - | - | 0 W/m² | - |
| 1777887561 | 31.67° C | 28% | 1001 hPa | - | - | 0 W/m² | - |
| 1777886637 | 31.67° C | 30% | 1001 hPa | - | - | 0 W/m² | - |
| 1777885712 | 32.22° C | 33% | 1001 hPa | - | - | 0 W/m² | - |
| 1777884788 | 32.22° C | 35% | 1001 hPa | - | - | 0 W/m² | - |
| 1777883864 | 32.22° C | 38% | 1001 hPa | - | - | 0 W/m² | - |
| 1777882939 | 33.33° C | 42% | 1002 hPa | - | - | 0 W/m² | - |
| 1777882015 | 33.89° C | 42% | 1002 hPa | - | - | 0 W/m² | - |
| 1777881090 | 33.33° C | 43% | 1002 hPa | - | - | 0 W/m² | - |
| 1777880166 | 32.78° C | 40% | 1002 hPa | - | - | 0 W/m² | - |
| 1777879241 | 32.22° C | 32% | 1003 hPa | - | - | 0 W/m² | - |
| 1777878317 | 32.22° C | 32% | 1003 hPa | - | - | 0 W/m² | - |
| 1777877392 | 32.78° C | 33% | 1003 hPa | - | - | 0 W/m² | - |
| 1777876468 | 33.33° C | 32% | 1004 hPa | - | - | 0 W/m² | - |
| 1777875543 | 33.89° C | 33% | 1003 hPa | - | - | 0 W/m² | - |
* Rain since midnight (hover to see other rain measurements)
** Current wind speed in m/s (hover to see current wind gust speed)